STARLINK-34177, 64170

Orbit data source: Space-Track

STARLINK-34177, 64170 is a payload satellite owned by SpaceX/Seattle (US) in LEO that was launched on Wed, 28 May 2025 UTC via an FALCON 9 launch vehicle from the Air Force Eastern Test Range (AFETR). Payload-class satellites include a variety of spacecraft equipped with specific instruments for various scientific and technological missions. These include communications satellites like Starlink; space stations such as the ISS; scientific satellites like the Hubble; Earth observation satellites from companies like Planet Labs, Umbra, and HawkEye 360; GPS; miniature CubeSats for education and research; and military/defense satellites.

Loading next visibility...
Identifier
64170, 2025-113A
Orbit
LEO
Country
Flag of USUS
Related business
Manufacturer
SpaceX/Seattle
Mission
Operational Commercial Communications
Bus & Motor
STARLINK V2MO, Unknown motor
Mass
575 kg wet, ~530 kg dry
Launch date (UTC)
2025-05-28 (1 year ago)
Launch vehicle
FALCON 9
Launch site
Air Force Eastern Test Range (AFETR)
Object type
Payload
Rocket body
Debris
Shape & HBR
Box + 2 Pan, 17.7 m
Radar Cross Section
36.964 m², Large (>1 m²)

Expand to show TLE details & history
Last TLE update: 12 hours ago

TLE from 12 hours ago
0 STARLINK-34177
1 64170U 25113A   26171.42010497  .00023915  00000-0  77955-3 0  9990
2 64170  53.1593 333.2591 0001298  71.3769 288.7373 15.31715997 60805
Epoch: 2026-06-20T10:04Z
TLE epoch observation values (Epoch: 2026-06-20T10:04:57.069Z)
Latitude
-0.00004°
Longitude
-86.61371°
Altitude
471.307 km
Speed
7.632 km/s
True Right ascension
22h 13m 02s
True Declination
0° 00' 00"
Sunlit
Object was in full shadow at epoch
Visualization orbit readout
Latitude
Unknown
Longitude
Unknown
Altitude
Unknown
Speed
Unknown
Apparent Right ascension
Unknown
Apparent Declination
Unknown
Sunlit
N/A
Visualization observer readout
Local Sidereal Time
08:32:52
Azimuth
Unknown
Elevation
Unknown
Doppler factor
Unknown
Orbital elements
Apogee altitude
471.838 km
Perigee altitude
470.06 km
Semi-major axis
6,849.086 km
Eccentricity
0.00013
Inclination
53.1593°
RAAN
333.2591°
Arg. of periapsis
71.3769°
True anomaly
288.72321°
Mean anomaly
288.7373°
Eccentric anomaly
288.73026°
Mean motion
3.82908 °/min
Orbital period
94.02 mins
BSTAR
0.00077955
Loading maneuver chart data...
Computing Atmospheric mass density...
Loading historical data...
Loading historical data...
Loading historical data...
Loading historical data...
Loading historical data...
Loading historical data...
Loading historical data...

Documentation

Showing up to 5 results
|